Location: Newark
(20.4406°S, 50.8231°W)
Time: 02:31:45
(UTC+00:00)

LightSail 2 - Visible Passes

Search period start: 17 September 2019 00:00
Search period end: 27 September 2019 00:00
Orbit: 699 x 732 km, 24.0° (Epoch: 15 September)

Date Brightness Start Highest point End Pass type
(mag) Time Alt. Az. Time Alt. Az. Time Alt. Az.
17 Sep 5.3 22:24:38 10° W 22:29:53 67° S 22:32:25 30° ESE visible
18 Sep 7.9 00:10:35 10° WSW 00:11:27 15° WSW 00:11:27 15° WSW visible
18 Sep 5.7 23:13:14 10° W 23:17:50 54° SSW 23:17:50 54° SSW visible
19 Sep 5.5 22:15:53 10° W 22:21:05 59° S 22:24:11 24° ESE visible
20 Sep 7.6 00:01:44 10° WSW 00:03:12 19° WSW 00:03:12 19° WSW visible
20 Sep 5.4 23:04:24 10° WSW 23:09:32 61° S 23:09:32 61° S visible
21 Sep 5.5 22:07:03 10° WSW 22:12:16 58° S 22:15:51 20° ESE visible
21 Sep 7.2 23:52:47 10° WSW 23:54:52 24° WSW 23:54:52 24° WSW visible
22 Sep 5.1 22:55:27 10° WSW 23:00:44 75° S 23:01:11 69° SE visible
23 Sep 5.4 21:58:07 10° WSW 22:03:23 66° S 22:07:30 16° E visible
23 Sep 6.9 23:43:50 10° W 23:46:31 30° W 23:46:31 30° W visible
24 Sep 5.1 22:46:27 10° WSW 22:51:46 82° NNW 22:52:51 57° ENE visible
25 Sep 5.2 21:49:06 10° WSW 21:54:25 83° SSE 21:59:12 13° E visible
25 Sep 6.7 23:35:00 10° W 23:38:13 32° WNW 23:38:13 32° WNW visible
26 Sep 5.6 22:37:29 10° W 22:42:40 55° NNW 22:44:35 35° NE visible
